Orbital Elements at Epoch 2459000.5 (2020-May-31.0) TDB
Reference: JPL 18 (heliocentric ecliptic J2000)
Element | Value | Uncertainty (1-sigma) | Units |
e | .171719333157518 | 4.5497e-08 | |
a | 2.374052043206099 | 7.6901e-09 | au |
q | 1.966381409465505 | 1.1148e-07 | au |
i | 3.138176279648897 | 3.553e-06 | deg |
node | 131.2680459880245 | 8.1366e-05 | deg |
peri | 273.9566484492677 | 8.2265e-05 | deg |
M | 299.4349860867524 | 1.1116e-05 | deg |
tp | 2459225.277636417683 (2021-Jan-10.77763642) | 4.1462e-05 | TDB |
period | 1336.084050542356 3.66 | 6.4918e-06 1.777e-08 | d yr |
n | .2694441265531651 | 1.3092e-09 | deg/d |
Q | 2.781722676946693 | 9.0106e-09 | au |
|
| | Orbit Determination Parameters
Additional Information
|